Stündliche Wetter Abanosimovka

Heute, 25 Juni, Freitag

Zeit Temperatur Niederschläge Wind Luftdruck Luftfeuchtigkeit
00:00 +22°C° 0 mm 3 m/S 751 mmHg 77%
01:00 +23°C° 0 mm 2 m/S 751 mmHg 79%
02:00 +23°C° 0 mm 2 m/S 751 mmHg 80%
03:00 +23°C° 0 mm 2 m/S 751 mmHg 81%
04:00 +23°C° 0 mm 2 m/S 751 mmHg 81%
05:00 +24°C° 0 mm 2 m/S 751 mmHg 81%
06:00 +24°C° 0 mm 2 m/S 751 mmHg 80%
07:00 +26°C° 0 mm 2 m/S 751 mmHg 74%
08:00 +28°C° 0 mm 2 m/S 751 mmHg 68%
09:00 +29°C° 0 mm 2 m/S 750 mmHg 62%
10:00 +30°C° 0 mm 2 m/S 750 mmHg 58%
11:00 +31°C° 0 mm 2 m/S 750 mmHg 54%
12:00 +32°C° 0 mm 2 m/S 750 mmHg 50%
13:00 +34°C° 0 mm 2 m/S 750 mmHg 49%
14:00 +34°C° 0 mm 2 m/S 750 mmHg 47%
15:00 +34°C° 0 mm 2 m/S 750 mmHg 46%
16:00 +34°C° 0 mm 2 m/S 749 mmHg 50%
17:00 +32°C° 0 mm 2 m/S 749 mmHg 54%
18:00 +32°C° 0 mm 2 m/S 749 mmHg 58%
19:00 +30°C° 0 mm 1 m/S 749 mmHg 62%
20:00 +28°C° 0 mm 1 m/S 749 mmHg 65%
21:00 +26°C° 0 mm 1 m/S 749 mmHg 69%
22:00 +26°C° 0 mm 1 m/S 748 mmHg 71%
23:00 +25°C° 0 mm 1 m/S 748 mmHg 73%

Morgen, 26 Juni, Samstag

Zeit Temperatur Niederschläge Wind Luftdruck Luftfeuchtigkeit
00:00 +24°C° 0 mm 1 m/S 748 mmHg 74%
01:00 +24°C° 0 mm 1 m/S 748 mmHg 76%
02:00 +23°C° 0 mm 1 m/S 748 mmHg 78%
03:00 +23°C° 0 mm 2 m/S 748 mmHg 80%
04:00 +24°C° 0 mm 1 m/S 748 mmHg 80%
05:00 +24°C° 0 mm 1 m/S 748 mmHg 80%
06:00 +25°C° 0 mm 1 m/S 748 mmHg 79%
07:00 +26°C° 0 mm 2 m/S 748 mmHg 74%
08:00 +28°C° 0 mm 2 m/S 748 mmHg 68%
09:00 +30°C° 0 mm 2 m/S 748 mmHg 62%
10:00 +31°C° 0 mm 1 m/S 748 mmHg 58%
11:00 +32°C° 0 mm 1 m/S 748 mmHg 54%
12:00 +33°C° 0 mm 1 m/S 748 mmHg 50%
13:00 +33°C° 0 mm 1 m/S 748 mmHg 48%
14:00 +33°C° 0 mm 1 m/S 748 mmHg 46%
15:00 +34°C° 0 mm 1 m/S 747 mmHg 44%
16:00 +31°C° 0 mm 0 m/S 747 mmHg 47%
17:00 +31°C° 0 mm 0 m/S 747 mmHg 50%
18:00 +31°C° 0 mm 0 m/S 746 mmHg 53%
19:00 +31°C° 0 mm 1 m/S 746 mmHg 59%
20:00 +29°C° 0 mm 2 m/S 746 mmHg 64%
21:00 +27°C° 0 mm 2 m/S 747 mmHg 69%
22:00 +26°C° 0 mm 2 m/S 746 mmHg 70%
23:00 +26°C° 0 mm 2 m/S 746 mmHg 72%

übermorgen, 27 Juni, Sonntag

Zeit Temperatur Niederschläge Wind Luftdruck Luftfeuchtigkeit
00:00 +26°C° 0 mm 2 m/S 746 mmHg 74%
01:00 +25°C° 0 mm 2 m/S 746 mmHg 76%
02:00 +24°C° 0 mm 2 m/S 746 mmHg 78%
03:00 +24°C° 0 mm 2 m/S 746 mmHg 80%
04:00 +24°C° 0 mm 2 m/S 747 mmHg 79%
05:00 +25°C° 0 mm 2 m/S 747 mmHg 79%
06:00 +25°C° 0 mm 2 m/S 747 mmHg 78%
07:00 +27°C° 0 mm 2 m/S 747 mmHg 72%
08:00 +29°C° 0 mm 2 m/S 747 mmHg 66%
09:00 +30°C° 0 mm 3 m/S 746 mmHg 60%
10:00 +31°C° 0 mm 3 m/S 746 mmHg 57%
11:00 +33°C° 0 mm 3 m/S 746 mmHg 53%
12:00 +34°C° 0 mm 3 m/S 746 mmHg 49%
13:00 +35°C° 0 mm 3 m/S 746 mmHg 48%
14:00 +35°C° 0 mm 3 m/S 746 mmHg 47%
15:00 +36°C° 0 mm 3 m/S 746 mmHg 46%
16:00 +35°C° 0 mm 3 m/S 746 mmHg 51%
17:00 +35°C° 0 mm 3 m/S 745 mmHg 55%
18:00 +34°C° 0 mm 2 m/S 745 mmHg 60%
19:00 +33°C° 0 mm 3 m/S 745 mmHg 64%
20:00 +30°C° 0 mm 3 m/S 744 mmHg 68%
21:00 +28°C° 0 mm 3 m/S 744 mmHg 73%
22:00 +28°C° 0 mm 4 m/S 744 mmHg 71%
23:00 +27°C° 0 mm 4 m/S 745 mmHg 70%

28 Juni, Montag

Zeit Temperatur Niederschläge Wind Luftdruck Luftfeuchtigkeit
00:00 +27°C° 0 mm 5 m/S 745 mmHg 69%
01:00 +25°C° 0.2 mm 4 m/S 745 mmHg 72%
02:00 +22°C° 0.2 mm 3 m/S 744 mmHg 76%
03:00 +21°C° 0.2 mm 2 m/S 744 mmHg 79%
04:00 +21°C° 0 mm 3 m/S 744 mmHg 80%
05:00 +21°C° 0 mm 3 m/S 745 mmHg 80%
06:00 +22°C° 0 mm 3 m/S 745 mmHg 81%
07:00 +25°C° 0 mm 4 m/S 745 mmHg 74%
08:00 +26°C° 0 mm 4 m/S 744 mmHg 67%
09:00 +28°C° 0 mm 4 m/S 744 mmHg 61%
10:00 +29°C° 0 mm 5 m/S 744 mmHg 57%
11:00 +32°C° 0 mm 5 m/S 744 mmHg 54%
12:00 +33°C° 0 mm 5 m/S 744 mmHg 50%
13:00 +33°C° 0 mm 5 m/S 744 mmHg 50%
14:00 +34°C° 0 mm 5 m/S 744 mmHg 50%
15:00 +34°C° 0 mm 5 m/S 744 mmHg 50%
16:00 +34°C° 0 mm 4 m/S 743 mmHg 53%
17:00 +33°C° 0 mm 4 m/S 743 mmHg 57%
18:00 +33°C° 0 mm 3 m/S 743 mmHg 61%
19:00 +30°C° 0.3 mm 3 m/S 743 mmHg 66%
20:00 +28°C° 0.3 mm 3 m/S 742 mmHg 71%
21:00 +27°C° 0.3 mm 3 m/S 742 mmHg 76%
22:00 +25°C° 2.9 mm 3 m/S 742 mmHg 82%
23:00 +23°C° 2.9 mm 4 m/S 742 mmHg 88%

29 Juni, Dienstag

Zeit Temperatur Niederschläge Wind Luftdruck Luftfeuchtigkeit
00:00 +21°C° 2.9 mm 4 m/S 742 mmHg 93%
01:00 +21°C° 0.5 mm 3 m/S 742 mmHg 94%
02:00 +21°C° 0.5 mm 3 m/S 742 mmHg 94%
03:00 +21°C° 0.5 mm 2 m/S 742 mmHg 95%
04:00 +21°C° 0.1 mm 2 m/S 742 mmHg 94%
05:00 +21°C° 0.1 mm 3 m/S 742 mmHg 94%
06:00 +21°C° 0.1 mm 3 m/S 742 mmHg 94%
07:00 +21°C° 0 mm 4 m/S 743 mmHg 88%
08:00 +22°C° 0 mm 4 m/S 743 mmHg 83%
09:00 +22°C° 0 mm 5 m/S 743 mmHg 77%
10:00 +23°C° 0 mm 5 m/S 743 mmHg 74%
11:00 +25°C° 0 mm 5 m/S 743 mmHg 70%
12:00 +26°C° 0 mm 5 m/S 743 mmHg 66%
13:00 +26°C° 0 mm 5 m/S 744 mmHg 65%
14:00 +26°C° 0 mm 5 m/S 744 mmHg 64%
15:00 +26°C° 0 mm 5 m/S 744 mmHg 62%
16:00 +26°C° 0 mm 4 m/S 744 mmHg 63%
17:00 +26°C° 0 mm 3 m/S 744 mmHg 63%
18:00 +26°C° 0 mm 2 m/S 744 mmHg 64%
19:00 +24°C° 0 mm 2 m/S 744 mmHg 68%
20:00 +23°C° 0 mm 2 m/S 744 mmHg 73%
21:00 +20°C° 0 mm 2 m/S 744 mmHg 77%
22:00 +20°C° 0 mm 2 m/S 744 mmHg 78%
23:00 +19°C° 0 mm 2 m/S 744 mmHg 79%

30 Juni, Mittwoch

Zeit Temperatur Niederschläge Wind Luftdruck Luftfeuchtigkeit
00:00 +19°C° 0 mm 3 m/S 744 mmHg 80%
01:00 +18°C° 0 mm 2 m/S 744 mmHg 83%
02:00 +17°C° 0 mm 2 m/S 744 mmHg 86%
03:00 +17°C° 0 mm 2 m/S 744 mmHg 89%
04:00 +17°C° 0 mm 2 m/S 744 mmHg 88%
05:00 +18°C° 0 mm 3 m/S 744 mmHg 88%
06:00 +18°C° 0 mm 3 m/S 744 mmHg 87%
07:00 +19°C° 0 mm 3 m/S 744 mmHg 81%
08:00 +21°C° 0 mm 4 m/S 744 mmHg 75%
09:00 +22°C° 0 mm 4 m/S 745 mmHg 68%
10:00 +23°C° 0 mm 4 m/S 744 mmHg 65%
11:00 +25°C° 0 mm 5 m/S 744 mmHg 61%
12:00 +25°C° 0 mm 5 m/S 744 mmHg 58%
13:00 +25°C° 0.1 mm 5 m/S 744 mmHg 59%
14:00 +24°C° 0.1 mm 6 m/S 744 mmHg 61%
15:00 +24°C° 0.1 mm 6 m/S 744 mmHg 62%
16:00 +23°C° 0.1 mm 6 m/S 745 mmHg 66%
17:00 +22°C° 0.1 mm 6 m/S 745 mmHg 71%
18:00 +21°C° 0.1 mm 5 m/S 745 mmHg 75%
19:00 +20°C° 0 mm 5 m/S 745 mmHg 79%
20:00 +19°C° 0 mm 4 m/S 745 mmHg 83%
21:00 +18°C° 0 mm 4 m/S 745 mmHg 87%
22:00 +18°C° 0 mm 4 m/S 745 mmHg 86%
23:00 +18°C° 0 mm 4 m/S 745 mmHg 85%
Mehr zeigen

Wir brauchen deine Erlaubnis

Meteoprog und unser Service Anbieter werden persönliche Daten aufbewahren, so wie Cookies, Geräte Bezeichnung oder ähnliche Technologien von deinem Gerät und Prozess, so wie Persönliche Daten Inhalte und Werbungen, genauso wie social Media und den Verkehr zu analysieren.

  • Aufbewahrung und/oder Zugang zu deiner Geräte Informationen.

    Cookies, Geräte Bezeichnung oder andere Informationen, können aufbewahrt oder Zugang zu deinem Gerät erhalten, für den Grund, der oben angegeben wird.

  • Personalisierte Werbung und Inhalte, Messungen, Einblick in das Publikum und Produkt Entwicklung.

    Werbungen und Inhalte können personalisiert werden, basierend auf ein Profil. Mehr Daten können besser personalisierte Werbungen und Inhalte hinzufügen. Werbung und Inhalte können gezeigt und gemessen werden. Einblicke über das Publikum, welche die Werbung gesehen haben und den Inhalt, können abgeleitet werden. So wie Daten können genutzt werden, um es zu verbessern oder die Benutzer Erfahrung zu verbessern das System und die Software.

Wenn du “Ich stimme zu” klickst, erlaubst du uns, die Cookies zu benutzen die Geräte Bezeichnung, den Web oder ähnliche Technologien zu benutzen. Deine Settings, können in deinem Gerät bei deinem Browser geändert werden.

Für den bestimmten Zweck, berechtigten Interessen beruhen darauf, mehr als auf den Inhalt. Du kannst mehr darüber in unseren Privaten und Cookie Politik lesen.